AAL715 KBOI-KRNO

Flight info

Callsign AAL715
Flight time N/A
Altitude 34000
Route HYVAL REO FMG
Aircraft A320/M-SDE3FGHIRWY/LB1

Departure

Time 2026-05-07 05:28
Airport Boise Air Terminal/Gowen Field (KBOI)

Arrival

Time N/A
Airport Reno Tahoe International Airport (KRNO)
Time Latitude Longitude Altitude Speed Heading
2026-05-07 05:06 43.56708 -116.22022 2881 ft 0 kts 32°
2026-05-07 05:21 43.56669 -116.22044 2881 ft 4 kts 359°
2026-05-07 05:21 43.56648 -116.22035 2881 ft 3 kts 298°
2026-05-07 05:22 43.56647 -116.22031 2881 ft 0 kts 295°
2026-05-07 05:24 43.56663 -116.22091 2881 ft 11 kts 281°
2026-05-07 05:24 43.56638 -116.22193 2881 ft 12 kts 271°
2026-05-07 05:24 43.56669 -116.22304 2881 ft 14 kts 295°
2026-05-07 05:24 43.56724 -116.22466 2881 ft 20 kts 295°
2026-05-07 05:25 43.56786 -116.22648 2881 ft 22 kts 295°
2026-05-07 05:25 43.56851 -116.22841 2881 ft 23 kts 295°
2026-05-07 05:25 43.56921 -116.23043 2881 ft 24 kts 295°
2026-05-07 05:25 43.56993 -116.23254 2881 ft 25 kts 295°
2026-05-07 05:26 43.57066 -116.23472 2881 ft 25 kts 295°
2026-05-07 05:26 43.57109 -116.23698 2882 ft 25 kts 268°
2026-05-07 05:26 43.57089 -116.23937 2882 ft 25 kts 258°
2026-05-07 05:26 43.57065 -116.24063 2882 ft 8 kts 255°
2026-05-07 05:27 43.57046 -116.24153 2882 ft 15 kts 250°
2026-05-07 05:27 43.56967 -116.24149 2883 ft 20 kts 117°
2026-05-07 05:27 43.56837 -116.23776 2884 ft 82 kts 115°
2026-05-07 05:27 43.56481 -116.22736 2884 ft 157 kts 115°
2026-05-07 05:28 43.55942 -116.21205 3290 ft 185 kts 116°
2026-05-07 05:28 43.55347 -116.19540 4067 ft 201 kts 117°
2026-05-07 05:28 43.54699 -116.17780 4889 ft 206 kts 118°
2026-05-07 05:28 43.54034 -116.15954 5244 ft 224 kts 117°
2026-05-07 05:29 43.53286 -116.13923 5506 ft 249 kts 117°
2026-05-07 05:29 43.52462 -116.11697 5886 ft 271 kts 117°
2026-05-07 05:29 43.51585 -116.09334 6561 ft 280 kts 117°
2026-05-07 05:29 43.50689 -116.06919 7344 ft 285 kts 117°
2026-05-07 05:30 43.49793 -116.04506 8107 ft 289 kts 117°
2026-05-07 05:30 43.48712 -116.02161 8830 ft 292 kts 135°
2026-05-07 05:30 43.47029 -116.00592 9527 ft 295 kts 160°
2026-05-07 05:30 43.45014 -116.00074 10211 ft 298 kts 181°
2026-05-07 05:31 43.42928 -116.00686 10409 ft 320 kts 206°
2026-05-07 05:31 43.41134 -116.02606 10544 ft 340 kts 232°
2026-05-07 05:31 43.39979 -116.05557 10675 ft 360 kts 247°
2026-05-07 05:31 43.39010 -116.08809 10937 ft 373 kts 248°
2026-05-07 05:32 43.38048 -116.12096 11415 ft 378 kts 248°
2026-05-07 05:32 43.37052 -116.15504 11932 ft 381 kts 248°
2026-05-07 05:32 43.36067 -116.18858 12418 ft 385 kts 248°
2026-05-07 05:32 43.35056 -116.22278 12889 ft 388 kts 248°
2026-05-07 05:33 43.34033 -116.25717 13337 ft 391 kts 248°
2026-05-07 05:33 43.32990 -116.29202 13774 ft 394 kts 247°
2026-05-07 05:33 43.31942 -116.32693 14193 ft 397 kts 247°
2026-05-07 05:33 43.30882 -116.36204 14597 ft 399 kts 247°
2026-05-07 05:34 43.29812 -116.39737 14984 ft 402 kts 247°
2026-05-07 05:34 43.28735 -116.43295 15357 ft 405 kts 247°
2026-05-07 05:34 43.27651 -116.46881 15715 ft 407 kts 247°
2026-05-07 05:34 43.26562 -116.50487 15943 ft 410 kts 247°
2026-05-07 05:35 43.25471 -116.54096 15991 ft 410 kts 247°
2026-05-07 05:35 43.24380 -116.57705 15992 ft 409 kts 247°
2026-05-07 05:35 43.23289 -116.61317 15992 ft 409 kts 247°
2026-05-07 05:35 43.22207 -116.64880 15992 ft 409 kts 247°
2026-05-07 05:36 43.21108 -116.68477 15992 ft 409 kts 247°
2026-05-07 05:36 43.20006 -116.72071 15992 ft 409 kts 247°
2026-05-07 05:36 43.18903 -116.75667 15992 ft 409 kts 247°
2026-05-07 05:36 43.17801 -116.79262 15992 ft 409 kts 247°
2026-05-07 05:37 43.16699 -116.82855 15992 ft 409 kts 247°
2026-05-07 05:37 43.15594 -116.86459 15991 ft 409 kts 247°
2026-05-07 05:37 43.14492 -116.90056 15992 ft 409 kts 247°
2026-05-07 05:37 43.13202 -116.93515 15992 ft 409 kts 237°
2026-05-07 05:38 43.11504 -116.96635 15993 ft 409 kts 231°
2026-05-07 05:38 43.09744 -116.99692 15992 ft 409 kts 232°
2026-05-07 05:38 43.07985 -117.02753 15992 ft 409 kts 232°
2026-05-07 05:38 43.06228 -117.05814 15992 ft 409 kts 232°
2026-05-07 05:39 43.04492 -117.08833 15992 ft 409 kts 232°
2026-05-07 05:39 43.02735 -117.11889 15992 ft 409 kts 232°
2026-05-07 05:39 43.00979 -117.14946 15992 ft 409 kts 232°
2026-05-07 05:39 42.99215 -117.18011 15992 ft 409 kts 232°
2026-05-07 05:40 42.97454 -117.21066 15991 ft 409 kts 232°
2026-05-07 05:40 42.95689 -117.24121 15992 ft 409 kts 232°
2026-05-07 05:40 42.93925 -117.27169 15992 ft 409 kts 231°
2026-05-07 05:40 42.92159 -117.30211 16289 ft 405 kts 231°
2026-05-07 05:41 42.90451 -117.33148 17433 ft 385 kts 231°
2026-05-07 05:41 42.88825 -117.35947 18335 ft 374 kts 231°
2026-05-07 05:41 42.87188 -117.38765 18472 ft 383 kts 231°
2026-05-07 05:41 42.85519 -117.41641 18599 ft 391 kts 231°
2026-05-07 05:42 42.83837 -117.44543 18725 ft 399 kts 231°
2026-05-07 05:42 42.82102 -117.47530 18853 ft 405 kts 231°
2026-05-07 05:42 42.80337 -117.50562 18981 ft 412 kts 231°
2026-05-07 05:42 42.78540 -117.53642 19109 ft 418 kts 231°
2026-05-07 05:43 42.76721 -117.56756 19235 ft 423 kts 231°
2026-05-07 05:43 42.74874 -117.59910 19361 ft 428 kts 231°
2026-05-07 05:43 42.73012 -117.63088 19486 ft 432 kts 231°
2026-05-07 05:43 42.71131 -117.66297 19618 ft 435 kts 231°
2026-05-07 05:44 42.69239 -117.69518 19778 ft 437 kts 231°
2026-05-07 05:44 42.67340 -117.72746 19946 ft 438 kts 231°
2026-05-07 05:44 42.65432 -117.75985 20110 ft 440 kts 231°
2026-05-07 05:44 42.63519 -117.79230 20265 ft 441 kts 231°
2026-05-07 05:45 42.61599 -117.82486 20413 ft 442 kts 231°
2026-05-07 05:45 42.59505 -117.85468 20547 ft 443 kts 221°
2026-05-07 05:45 42.57012 -117.87926 20681 ft 444 kts 210°
2026-05-07 05:45 42.54243 -117.89779 20811 ft 445 kts 204°
2026-05-07 05:46 42.51412 -117.91502 20936 ft 446 kts 204°
2026-05-07 05:46 42.48583 -117.93233 21061 ft 446 kts 204°
2026-05-07 05:46 42.45750 -117.94972 21186 ft 447 kts 204°
2026-05-07 05:46 42.42923 -117.96711 21384 ft 445 kts 204°
2026-05-07 05:47 42.40108 -117.98442 21632 ft 443 kts 204°
2026-05-07 05:47 42.37300 -118.00163 21780 ft 443 kts 204°
2026-05-07 05:47 42.34483 -118.01885 21905 ft 444 kts 204°
2026-05-07 05:47 42.31701 -118.03579 22029 ft 444 kts 204°
2026-05-07 05:48 42.28883 -118.05290 22154 ft 445 kts 204°
2026-05-07 05:48 42.26058 -118.07004 22279 ft 445 kts 204°
2026-05-07 05:48 42.23235 -118.08717 22404 ft 445 kts 204°
2026-05-07 05:48 42.20412 -118.10430 22528 ft 445 kts 204°
2026-05-07 05:49 42.17585 -118.12144 22653 ft 445 kts 204°
2026-05-07 05:49 42.14757 -118.13857 22778 ft 445 kts 204°
2026-05-07 05:49 42.11933 -118.15570 22903 ft 445 kts 204°
2026-05-07 05:49 42.09103 -118.17286 23028 ft 445 kts 204°
2026-05-07 05:50 42.06276 -118.18996 23153 ft 445 kts 204°
2026-05-07 05:50 42.03449 -118.20703 23278 ft 445 kts 204°
2026-05-07 05:50 42.00624 -118.22410 23401 ft 445 kts 204°
2026-05-07 05:50 41.97797 -118.24116 23526 ft 445 kts 204°
2026-05-07 05:51 41.94967 -118.25815 23651 ft 445 kts 204°
2026-05-07 05:51 41.92143 -118.27508 23776 ft 445 kts 204°
2026-05-07 05:51 41.89311 -118.29205 23901 ft 445 kts 204°
2026-05-07 05:51 41.86479 -118.30905 24026 ft 444 kts 204°
2026-05-07 05:52 41.83655 -118.32600 24148 ft 444 kts 204°
2026-05-07 05:52 41.80841 -118.34292 24372 ft 442 kts 204°
2026-05-07 05:52 41.78079 -118.35949 24618 ft 439 kts 204°
2026-05-07 05:52 41.75293 -118.37614 24867 ft 436 kts 204°
2026-05-07 05:53 41.72529 -118.39261 25116 ft 433 kts 204°
2026-05-07 05:53 41.69784 -118.40895 25365 ft 430 kts 204°
2026-05-07 05:53 41.67055 -118.42517 25614 ft 428 kts 204°
2026-05-07 05:53 41.64347 -118.44130 25864 ft 425 kts 204°
2026-05-07 05:54 41.61650 -118.45737 26113 ft 423 kts 204°
2026-05-07 05:54 41.58975 -118.47331 26363 ft 420 kts 204°
2026-05-07 05:54 41.56308 -118.48918 26613 ft 418 kts 204°
2026-05-07 05:54 41.53657 -118.50495 26862 ft 416 kts 204°
2026-05-07 05:55 41.51017 -118.52060 27112 ft 414 kts 204°
2026-05-07 05:55 41.48425 -118.53594 27359 ft 411 kts 204°
2026-05-07 05:55 41.45816 -118.55138 27608 ft 409 kts 204°
2026-05-07 05:55 41.43221 -118.56671 27858 ft 407 kts 204°
2026-05-07 05:56 41.40641 -118.58195 28107 ft 404 kts 204°
2026-05-07 05:56 41.38076 -118.59710 28357 ft 402 kts 204°
2026-05-07 05:56 41.35528 -118.61213 28606 ft 399 kts 204°
2026-05-07 05:56 41.32995 -118.62706 28856 ft 397 kts 204°
2026-05-07 05:57 41.30479 -118.64189 29105 ft 394 kts 204°
2026-05-07 05:57 41.27984 -118.65661 29354 ft 391 kts 204°
2026-05-07 05:57 41.25500 -118.67123 29604 ft 389 kts 204°
2026-05-07 05:57 41.23038 -118.68569 29853 ft 386 kts 204°
2026-05-07 05:58 41.20594 -118.70006 30096 ft 383 kts 204°
2026-05-07 05:58 41.18147 -118.71442 30222 ft 384 kts 204°
2026-05-07 05:58 41.15706 -118.72873 30347 ft 384 kts 204°
2026-05-07 05:58 41.13259 -118.74301 30472 ft 384 kts 204°
2026-05-07 05:59 41.10806 -118.75731 30597 ft 385 kts 204°
2026-05-07 05:59 41.08353 -118.77163 30722 ft 385 kts 204°
2026-05-07 05:59 41.05902 -118.78596 30847 ft 385 kts 204°
2026-05-07 05:59 41.03449 -118.80029 30972 ft 385 kts 204°
2026-05-07 06:00 41.00996 -118.81462 31097 ft 385 kts 204°
2026-05-07 06:00 40.98542 -118.82894 31222 ft 385 kts 204°
2026-05-07 06:00 40.96918 -118.83839 31305 ft 385 kts 204°
2026-05-07 06:00 40.94461 -118.85268 31430 ft 385 kts 204°
2026-05-07 06:01 40.91209 -118.87158 31596 ft 385 kts 204°
2026-05-07 06:01 40.88758 -118.88582 31721 ft 385 kts 204°
2026-05-07 06:01 40.86308 -118.90002 31846 ft 384 kts 204°
2026-05-07 06:02 40.82208 -118.92375 32055 ft 384 kts 204°
2026-05-07 06:02 40.79759 -118.93788 32180 ft 383 kts 204°
2026-05-07 06:02 40.77346 -118.95184 32304 ft 383 kts 204°
2026-05-07 06:02 40.74913 -118.96595 32428 ft 382 kts 204°
2026-05-07 06:03 40.72477 -118.98004 32553 ft 381 kts 204°
2026-05-07 06:03 40.70052 -118.99402 32678 ft 380 kts 204°
2026-05-07 06:03 40.67631 -119.00797 32803 ft 379 kts 204°
2026-05-07 06:03 40.65218 -119.02190 32927 ft 378 kts 204°
2026-05-07 06:04 40.62806 -119.03580 33052 ft 377 kts 204°
2026-05-07 06:04 40.60405 -119.04961 33177 ft 376 kts 204°
2026-05-07 06:04 40.58007 -119.06336 33302 ft 375 kts 204°
2026-05-07 06:04 40.55622 -119.07705 33427 ft 373 kts 204°
2026-05-07 06:05 40.53247 -119.09072 33551 ft 372 kts 204°
2026-05-07 06:05 40.50905 -119.10418 33674 ft 370 kts 204°
2026-05-07 06:05 40.48552 -119.11768 33799 ft 368 kts 204°
2026-05-07 06:05 40.46212 -119.13111 33954 ft 366 kts 204°
2026-05-07 06:06 40.43877 -119.14449 34006 ft 366 kts 204°
2026-05-07 06:06 40.39183 -119.17135 34010 ft 370 kts 204°
2026-05-07 06:07 40.34438 -119.19841 34010 ft 374 kts 204°
2026-05-07 06:07 40.29644 -119.22577 34010 ft 378 kts 204°
2026-05-07 06:08 40.24795 -119.25335 34010 ft 382 kts 204°
2026-05-07 06:08 40.19892 -119.28108 34010 ft 386 kts 203°
2026-05-07 06:09 40.14938 -119.30919 34010 ft 390 kts 204°
2026-05-07 06:09 40.09937 -119.33758 34009 ft 394 kts 204°
2026-05-07 06:10 40.04878 -119.36614 34009 ft 398 kts 203°
2026-05-07 06:10 39.99801 -119.39480 34009 ft 402 kts 204°
2026-05-07 06:11 39.94600 -119.42418 34009 ft 407 kts 203°
2026-05-07 06:11 39.89413 -119.45334 34009 ft 411 kts 203°
2026-05-07 06:12 39.84129 -119.48299 34009 ft 415 kts 203°
2026-05-07 06:12 39.78800 -119.51284 34009 ft 419 kts 203°
2026-05-07 06:13 39.73416 -119.54290 34009 ft 423 kts 203°
2026-05-07 06:13 39.67988 -119.57323 34009 ft 426 kts 203°
2026-05-07 06:14 39.62517 -119.60375 34009 ft 429 kts 203°
2026-05-07 06:14 39.57017 -119.63443 34009 ft 432 kts 203°
2026-05-07 06:15 39.51481 -119.66527 34009 ft 434 kts 204°
2026-05-07 06:15 39.45931 -119.69652 34009 ft 436 kts 204°
2026-05-07 06:16 39.40356 -119.72791 34009 ft 438 kts 204°
2026-05-07 06:16 39.34758 -119.75940 34009 ft 439 kts 204°
2026-05-07 06:17 39.29144 -119.79094 34009 ft 441 kts 204°